Temp
77 76 76 76 76 76 76 76 76 75 75 75 75 75 76 76 76 76 75 75 75 75 74 74 74 74 74 74 74 73 73 72 71 70 69 69 69 68 67 67 68 68 68 68 68 69 70 70 70 71 70 71 70 70 69 70 70 71 70 70 69 69 69
75 76 76 76 76 76 76 77 76 76 76 76 75 75 76 76 76 75 75 75 75 75 75 74 74 74 74 74 74 73 71 71 71 71 70 69 70 68 69 68 68 68 68 68 68 69 70 70 71 70 69 70 71 70 70 70 70 70 70 69 68 68 68
75 75 76 76 76 76 76 76 76 77 76 76 76 76 76 76 76 76 76 75 75 75 75 74 75 74 74 74 73 71 71 70 70 70 69 69 69 68 68 68 68 68 68 68 68 69 70 70 70 69 70 70 70 70 69 69 70 69 69 69 69 69 68
74 75 76 76 76 77 77 77 77 77 78 78 77 77 76 76 77 77 77 76 75 75 74 74 74 74 74 74 73 71 70 70 71 71 70 69 69 68 68 67 68 68 68 68 69 70 70 70 70 69 71 69 69 70 69 69 69 69 69 69 68 68 68
74 76 76 75 76 75 76 76 76 76 77 78 78 77 77 78 78 77 77 77 76 75 76 75 75 75 75 74 73 72 71 70 70 70 70 69 69 68 68 68 68 68 69 69 68 70 70 69 69 69 69 69 69 69 69 69 69 68 68 68 68 68 68
74 74 75 75 76 76 76 77 78 78 78 78 78 77 78 78 78 78 77 77 76 77 76 75 74 75 74 74 73 72 71 70 70 69 69 69 69 68 69 68 68 68 68 69 69 69 69 69 69 69 69 69 69 69 69 69 69 68 68 67 68 68 68
73 74 75 75 76 76 76 77 78 78 79 79 79 79 79 79 78 78 78 77 77 76 75 75 75 75 74 73 72 72 70 70 69 69 69 69 69 69 68 69 69 69 70 69 68 69 68 68 69 69 69 69 69 69 69 68 69 68 68 67 68 67 68
74 75 75 76 77 78 78 77 77 78 78 78 78 78 78 78 78 78 78 78 78 78 77 76 75 74 74 73 72 72 71 70 70 70 69 69 69 69 68 68 69 69 69 69 69 68 69 69 69 69 69 69 69 69 69 68 68 69 68 68 67 68 68
75 76 76 77 78 78 78 77 77 77 77 76 77 77 77 78 78 78 78 78 78 77 77 78 77 75 74 72 71 71 71 70 69 70 69 69 69 70 69 69 69 69 69 69 69 68 69 69 69 69 69 69 69 68 68 68 68 68 68 67 68 68 68
73 73 74 77 78 78 77 76 75 75 75 75 75 76 76 77 77 78 78 79 78 77 77 78 77 75 73 72 72 72 71 70 70 70 70 70 69 69 70 70 69 70 69 69 69 68 69 69 69 69 68 68 68 68 68 68 68 68 67 68 68 68 68
72 73 74 74 74 74 73 73 73 73 74 74 75 76 76 76 77 77 77 78 79 78 78 78 77 74 72 72 72 72 70 70 70 69 69 70 70 70 71 71 71 70 70 69 69 69 68 69 69 68 68 68 68 68 68 68 68 67 67 67 67 68 68
71 72 72 72 71 71 72 72 73 73 73 74 75 76 75 76 77 77 77 78 79 79 77 77 76 74 72 72 72 72 71 70 70 70 70 70 70 70 71 71 70 69 70 69 69 68 69 68 68 68 68 68 68 68 68 68 68 67 68 68 67 67 67
72 72 72 71 71 72 70 70 71 72 73 74 75 75 76 76 76 77 77 77 78 78 77 76 74 73 72 72 73 72 70 70 69 67 68 68 68 69 70 71 71 71 70 70 70 70 69 68 67 68 68 68 68 68 68 68 67 66 67 67 67 66 67
73 70 69 69 69 69 70 71 71 71 72 73 74 75 75 76 77 76 76 77 77 77 77 75 73 72 72 72 71 71 69 67 68 68 68 68 70 70 70 70 70 69 70 70 69 70 70 69 68 68 68 68 68 68 68 67 66 66 66 66 66 66 66
70 71 70 70 69 69 69 70 70 70 71 72 73 73 74 75 75 75 76 76 76 76 76 74 72 72 72 71 71 68 67 68 69 69 70 72 70 69 69 69 69 69 69 69 70 70 70 70 69 68 67 67 67 67 67 66 66 66 66 66 66 66 66
71 71 71 70 69 69 69 70 70 70 71 70 71 72 73 74 74 75 75 75 76 75 74 73 72 71 71 70 69 67 68 69 70 69 69 70 69 69 70 69 69 69 69 68 68 69 69 69 68 68 68 68 67 66 67 67 67 68 67 67 69 67 67
70 71 71 70 69 69 69 69 70 69 69 70 70 71 72 73 73 74 75 74 74 74 74 73 71 71 71 70 68 68 69 69 69 69 69 69 68 69 69 69 69 68 68 68 68 68 68 68 67 68 69 68 69 68 67 68 68 66 64 65 67 69 67
70 69 69 69 69 69 68 68 68 69 70 70 70 71 71 72 72 73 73 74 74 74 73 72 72 71 70 69 68 68 69 69 69 68 67 67 68 68 69 68 68 68 68 69 68 68 68 67 67 68 68 68 69 69 69 68 67 64 64 64 64 66 68
68 69 70 69 69 69 69 70 70 69 69 69 70 71 71 72 72 72 73 73 73 72 71 71 71 71 70 69 68 69 69 69 68 67 67 68 68 69 68 68 68 68 69 69 69 67 66 67 67 67 68 68 68 68 69 68 66 63 63 63 63 63 65
69 70 68 68 69 69 68 67 68 68 69 70 70 73 73 74 74 74 74 74 71 71 70 70 70 70 69 68 69 69 69 67 67 66 66 66 67 67 67 68 68 68 69 68 68 67 67 67 67 67 67 67 67 68 69 68 66 62 62 61 61 61 63
67 68 68 67 66 67 68 68 68 69 69 70 71 71 72 72 74 73 72 71 70 70 70 70 70 69 69 68 68 69 68 66 65 65 66 67 67 67 67 67 68 67 68 68 68 67 67 67 67 67 67 67 67 67 68 69 64 61 60 59 58 59 62
68 68 68 68 68 67 68 69 70 70 70 70 70 71 72 73 72 72 71 71 71 69 70 69 69 68 68 68 68 68 67 66 65 65 67 67 67 67 67 68 68 68 69 68 67 68 68 67 68 68 67 67 67 67 68 70 63 60 59 58 58 59 64
69 69 70 69 71 71 69 70 70 70 68 69 70 70 71 71 71 71 70 69 70 69 69 69 68 68 68 68 68 67 66 66 65 65 66 67 67 67 68 67 67 68 67 66 66 66 66 67 67 67 67 67 67 67 67 68 64 59 57 57 57 60 64
69 69 68 69 65 66 66 66 67 68 69 68 68 69 69 70 70 69 69 68 68 68 68 68 68 68 68 67 68 67 67 66 66 65 66 67 67 67 68 68 68 67 67 67 66 66 67 67 66 66 66 67 67 67 66 67 64 58 55 55 56 61 64
68 67 66 67 69 68 66 67 68 68 68 68 67 67 68 69 69 68 68 68 68 68 68 67 68 68 68 67 68 68 67 66 66 66 67 67 67 68 69 69 67 67 66 67 67 67 67 67 66 65 65 66 67 67 67 66 64 57 55 54 55 59 63
66 68 68 68 67 67 68 69 70 68 67 67 66 66 68 68 68 68 68 68 68 67 67 67 68 69 69 68 68 68 67 68 68 68 68 68 69 69 70 69 67 67 67 66 66 66 67 66 66 65 64 65 66 66 67 65 65 63 55 54 52 54 62
68 68 68 68 69 70 68 67 68 68 67 66 65 66 67 68 68 67 67 67 67 67 67 68 68 68 68 68 68 68 68 68 68 69 69 70 70 69 69 68 67 67 66 66 66 65 65 64 65 65 64 63 64 64 64 65 64 63 56 52 52 53 58
70 69 70 70 70 69 68 67 66 65 65 64 65 66 67 67 67 67 66 66 66 66 68 68 68 68 68 68 68 68 68 68 68 70 70 70 69 67 67 68 68 68 67 66 65 65 64 64 63 63 62 62 62 63 63 64 65 64 58 54 51 51 54
67 67 67 68 68 69 68 65 64 64 63 65 65 66 66 66 66 66 65 65 65 66 67 68 68 68 68 67 67 68 68 68 68 69 70 69 68 67 66 66 66 67 66 65 64 64 64 63 62 62 61 61 61 61 62 61 62 61 62 54 50 49 51
64 64 65 66 67 66 67 64 63 63 64 64 65 65 65 66 66 65 65 64 65 66 67 67 67 67 67 67 67 67 68 68 68 69 69 68 67 67 66 65 65 65 65 64 64 63 62 61 61 60 61 61 61 61 60 60 59 59 60 58 51 49 49
62 63 63 64 65 66 66 65 63 63 63 64 64 64 64 65 65 66 64 64 65 66 67 67 67 66 66 66 67 67 67 67 67 67 68 68 67 66 66 66 65 64 63 63 63 62 62 60 61 61 61 61 61 60 59 59 60 61 61 58 54 50 48
65 64 64 64 64 65 65 64 64 63 63 63 64 64 65 64 66 66 64 65 66 66 66 67 66 66 66 66 67 67 67 67 67 67 67 67 66 66 65 66 65 65 63 62 62 62 62 60 60 61 61 60 60 59 58 58 59 58 58 58 55 52 50
63 62 62 62 63 65 64 64 63 63 64 64 63 64 64 64 65 65 64 65 66 66 66 66 66 66 66 66 66 66 67 67 66 66 66 66 65 66 66 66 65 64 63 62 62 61 61 61 61 60 60 61 59 59 59 58 57 56 56 56 56 57 56
63 62 61 61 63 64 63 64 63 64 64 64 63 64 64 64 65 65 65 67 68 67 66 66 66 66 65 65 66 66 66 66 69 67 65 65 65 64 63 63 63 63 62 62 62 61 60 61 62 61 61 60 58 58 58 57 55 56 57 56 56 56 54
61 62 61 63 63 64 63 63 64 64 64 64 63 63 63 64 65 66 65 66 66 65 65 64 66 65 64 64 64 64 67 66 68 66 64 59 55 52 52 55 58 60 56 53 55 60 63 63 61 62 61 62 59 59 58 58 57 59 53 55 52 53 55
61 61 61 62 63 62 63 64 64 64 64 62 63 63 63 64 65 66 68 67 67 66 65 65 65 65 65 65 66 67 67 66 65 63 61 59 55 53 51 48 43 47 55 55 51 47 45 51 60 61 60 58 55 56 59 60 59 47 44 43 42 42 43
63 63 63 63 63 63 63 63 64 63 63 62 62 63 64 64 65 66 67 67 67 66 66 66 66 65 66 66 66 66 65 63 62 61 59 58 56 55 53 51 48 41 41 45 46 43 42 43 45 48 52 57 55 51 48 48 43 41 41 40 41 40 40
63 62 62 63 62 62 62 63 63 63 63 62 62 64 64 65 65 66 68 67 67 67 67 66 65 65 64 65 65 65 65 63 62 60 58 57 57 56 55 54 52 50 42 40 41 42 41 41 42 43 45 47 50 51 51 44 40 40 41 41 40 40 39
MSLP
1006.85 1007.17 1007.37 1007.53 1007.89 1008.05 1008.29 1008.53 1008.77 1009.21 1009.49 1009.81 1010.01 1010.21 1010.53 1010.73 1010.81 1011.05 1011.37 1011.57 1011.81 1012.05 1012.13 1012.29 1012.49 1012.77 1013.01 1013.17 1013.33 1013.53 1013.77 1014.09 1014.41 1014.69 1014.97 1015.13 1015.29 1015.69 1016.05 1016.25 1016.37 1016.53 1016.69 1016.85 1016.93 1016.93 1016.85 1016.97 1017.09 1017.17 1017.29 1017.41 1017.53 1017.61 1017.69 1017.73 1017.77 1017.73 1017.77 1017.85 1017.97 1018.09 1018.13
1006.77 1006.93 1007.09 1007.17 1007.41 1007.61 1007.69 1007.85 1008.25 1008.65 1009.05 1009.29 1009.57 1009.85 1010.09 1010.37 1010.57 1010.85 1010.93 1011.05 1011.25 1011.45 1011.69 1011.97 1012.25 1012.41 1012.57 1012.85 1013.05 1013.37 1013.73 1013.93 1014.09 1014.29 1014.61 1014.97 1015.17 1015.37 1015.45 1015.81 1016.01 1016.25 1016.41 1016.45 1016.57 1016.65 1016.73 1016.85 1016.89 1017.05 1017.17 1017.25 1017.37 1017.45 1017.61 1017.69 1017.69 1017.69 1017.77 1017.81 1017.97 1018.05 1018.13
1006.09 1006.33 1006.49 1006.69 1006.93 1007.09 1007.29 1007.65 1007.97 1008.13 1008.41 1008.73 1009.09 1009.53 1009.73 1009.77 1009.81 1010.01 1010.33 1010.73 1011.01 1011.17 1011.33 1011.61 1011.73 1011.97 1012.21 1012.49 1012.93 1013.21 1013.45 1013.65 1013.89 1014.05 1014.41 1014.73 1014.97 1015.17 1015.37 1015.57 1015.77 1016.01 1016.17 1016.29 1016.37 1016.49 1016.61 1016.77 1016.85 1016.89 1017.01 1017.09 1017.17 1017.29 1017.45 1017.57 1017.61 1017.65 1017.65 1017.77 1017.89 1017.97 1018.01
1005.49 1005.61 1005.61 1005.69 1005.93 1006.17 1006.53 1006.85 1007.13 1007.37 1007.61 1007.89 1008.25 1008.49 1008.85 1009.09 1009.13 1009.41 1009.77 1010.09 1010.57 1010.93 1011.25 1011.21 1011.33 1011.57 1011.77 1012.13 1012.57 1012.97 1013.25 1013.29 1013.37 1013.69 1014.05 1014.37 1014.73 1015.05 1015.37 1015.61 1015.73 1015.89 1016.21 1016.29 1016.29 1016.41 1016.57 1016.69 1016.81 1016.89 1016.93 1017.05 1017.05 1017.09 1017.29 1017.41 1017.53 1017.57 1017.57 1017.65 1017.77 1017.77 1017.81
1004.73 1004.85 1005.33 1005.73 1005.93 1006.29 1006.61 1006.81 1006.97 1007.13 1007.29 1007.33 1007.57 1007.77 1008.09 1008.37 1008.85 1009.33 1009.65 1009.77 1010.05 1010.37 1010.33 1010.57 1010.93 1011.21 1011.45 1011.73 1012.09 1012.45 1012.65 1012.89 1013.25 1013.57 1013.89 1014.25 1014.57 1014.89 1015.17 1015.45 1015.65 1015.89 1015.93 1016.09 1016.29 1016.45 1016.61 1016.77 1016.85 1016.89 1016.93 1016.93 1016.93 1016.97 1017.13 1017.25 1017.41 1017.45 1017.49 1017.57 1017.65 1017.65 1017.69
1004.53 1004.77 1004.85 1005.09 1005.45 1005.65 1005.77 1005.85 1006.09 1006.41 1006.73 1007.09 1007.37 1007.69 1007.85 1008.13 1008.53 1008.97 1009.09 1009.41 1009.69 1009.85 1010.29 1010.73 1010.89 1010.89 1011.13 1011.25 1011.61 1012.01 1012.33 1012.65 1012.89 1013.29 1013.69 1014.05 1014.37 1014.77 1014.97 1015.21 1015.53 1015.73 1015.89 1015.93 1016.13 1016.29 1016.41 1016.57 1016.69 1016.73 1016.81 1016.85 1016.85 1016.93 1016.97 1017.13 1017.21 1017.25 1017.29 1017.41 1017.45 1017.45 1017.53
1003.97 1004.17 1004.37 1004.57 1004.73 1004.97 1005.17 1005.37 1005.69 1005.97 1006.13 1006.29 1006.49 1006.85 1007.41 1008.01 1008.29 1008.25 1008.61 1009.05 1009.21 1009.69 1009.89 1010.09 1010.09 1010.41 1010.73 1011.25 1011.61 1011.89 1012.25 1012.53 1012.81 1013.13 1013.45 1013.85 1014.13 1014.53 1014.85 1015.09 1015.29 1015.45 1015.49 1015.73 1016.01 1016.05 1016.29 1016.45 1016.53 1016.65 1016.69 1016.73 1016.81 1016.85 1016.89 1017.01 1017.05 1017.05 1017.13 1017.25 1017.25 1017.25 1017.29
1003.01 1003.57 1003.57 1003.73 1003.97 1004.13 1004.53 1004.93 1005.25 1005.57 1005.89 1006.25 1006.85 1007.29 1007.61 1007.57 1007.81 1008.17 1008.45 1008.37 1008.61 1008.97 1009.29 1009.45 1009.77 1010.01 1010.33 1010.77 1011.01 1011.33 1011.65 1012.09 1012.53 1012.97 1013.37 1013.73 1014.13 1014.45 1014.77 1015.01 1015.17 1015.21 1015.41 1015.61 1015.69 1015.85 1016.09 1016.29 1016.41 1016.53 1016.61 1016.73 1016.77 1016.81 1016.81 1016.89 1016.89 1016.89 1016.97 1017.05 1017.09 1017.13 1017.17
1002.57 1002.57 1002.89 1003.13 1003.29 1003.53 1003.93 1004.37 1004.81 1005.25 1005.61 1005.97 1006.21 1006.45 1006.65 1006.97 1007.25 1007.41 1007.53 1007.77 1008.09 1008.45 1008.57 1008.57 1008.89 1009.41 1009.97 1010.45 1010.81 1011.09 1011.41 1011.93 1012.45 1012.81 1013.17 1013.49 1013.97 1014.37 1014.81 1015.05 1015.09 1015.01 1015.17 1015.37 1015.53 1015.73 1015.93 1016.09 1016.25 1016.41 1016.53 1016.69 1016.69 1016.77 1016.81 1016.85 1016.85 1016.77 1016.85 1016.89 1016.89 1016.93 1016.93
1002.49 1002.85 1002.89 1002.81 1002.89 1003.21 1003.69 1004.25 1004.81 1005.33 1005.81 1006.13 1006.33 1006.49 1006.65 1006.65 1006.77 1006.89 1007.13 1007.41 1007.73 1008.09 1008.13 1008.41 1008.73 1009.17 1009.73 1010.25 1010.73 1011.01 1011.41 1011.89 1012.33 1012.77 1013.01 1013.21 1013.57 1013.85 1014.29 1014.69 1014.85 1014.81 1014.93 1015.09 1015.33 1015.61 1015.81 1015.97 1016.13 1016.33 1016.53 1016.61 1016.65 1016.73 1016.73 1016.77 1016.77 1016.69 1016.69 1016.65 1016.69 1016.73 1016.73
1002.21 1002.25 1002.57 1002.97 1003.17 1003.41 1003.85 1004.37 1004.73 1004.89 1005.05 1005.33 1005.53 1005.73 1005.97 1006.21 1006.41 1006.69 1006.97 1007.17 1007.45 1007.53 1007.65 1008.01 1008.45 1009.09 1009.65 1010.17 1010.73 1011.05 1011.45 1011.77 1011.85 1012.13 1012.53 1012.89 1013.17 1013.69 1014.05 1014.33 1014.49 1014.57 1014.73 1015.01 1015.29 1015.45 1015.65 1015.77 1015.89 1016.13 1016.37 1016.53 1016.53 1016.53 1016.57 1016.53 1016.53 1016.57 1016.49 1016.45 1016.37 1016.41 1016.41
1002.05 1002.29 1002.41 1002.69 1003.25 1003.65 1003.77 1003.85 1004.17 1004.57 1004.85 1005.01 1005.17 1005.33 1005.57 1005.81 1006.05 1006.33 1006.57 1006.73 1006.69 1007.09 1007.49 1007.85 1008.25 1008.85 1009.53 1010.09 1010.53 1010.81 1011.13 1011.33 1011.77 1012.73 1013.81 1014.17 1014.01 1014.09 1014.05 1014.05 1014.21 1014.37 1014.57 1014.81 1015.09 1015.25 1015.33 1015.37 1015.53 1015.73 1016.01 1016.13 1016.17 1016.17 1016.21 1016.25 1016.29 1016.33 1016.25 1016.17 1016.17 1016.21 1016.21
1001.81 1001.93 1002.25 1002.65 1002.89 1003.17 1003.69 1004.21 1004.25 1004.21 1004.41 1004.57 1004.77 1005.01 1005.21 1005.45 1005.73 1005.93 1006.21 1006.41 1006.53 1006.73 1007.21 1007.69 1008.21 1008.77 1009.41 1009.77 1010.05 1010.33 1010.97 1012.09 1013.05 1013.53 1013.81 1013.77 1013.57 1013.49 1014.05 1013.97 1013.97 1014.13 1014.33 1014.45 1014.69 1014.89 1014.97 1015.05 1015.25 1015.33 1015.53 1015.69 1015.77 1015.85 1015.85 1015.89 1016.01 1016.09 1016.01 1015.97 1015.97 1015.97 1016.05
1001.93 1002.29 1002.53 1002.81 1003.21 1003.49 1003.49 1003.57 1003.89 1004.17 1004.29 1004.53 1004.73 1004.81 1005.05 1005.21 1005.41 1005.73 1005.97 1006.25 1006.45 1006.73 1007.13 1007.53 1008.01 1008.53 1009.01 1009.37 1009.69 1010.37 1011.81 1012.65 1012.53 1011.77 1011.17 1011.21 1011.77 1012.21 1012.89 1013.41 1013.57 1013.69 1013.85 1014.09 1014.33 1014.37 1014.45 1014.53 1014.69 1014.81 1015.09 1015.21 1015.29 1015.33 1015.41 1015.57 1015.73 1015.77 1015.73 1015.69 1015.73 1015.81 1015.85
1001.85 1001.89 1002.25 1002.57 1002.77 1003.09 1003.41 1003.65 1003.77 1003.93 1004.13 1004.25 1004.49 1004.85 1004.97 1005.21 1005.41 1005.65 1005.85 1006.01 1006.21 1006.41 1006.61 1006.89 1007.61 1008.25 1008.73 1009.17 1009.77 1010.69 1010.69 1009.89 1009.45 1009.81 1010.45 1010.93 1011.25 1011.73 1012.13 1012.61 1012.89 1013.21 1013.49 1013.73 1013.89 1014.01 1014.01 1014.05 1014.33 1014.61 1014.97 1014.97 1015.01 1015.01 1015.09 1015.29 1015.33 1015.33 1015.33 1015.41 1015.49 1015.49 1015.45
1001.41 1001.61 1001.85 1002.17 1002.45 1002.69 1002.93 1003.13 1003.37 1003.57 1003.89 1004.29 1004.45 1004.57 1004.81 1005.05 1005.25 1005.37 1005.61 1005.81 1005.89 1006.09 1006.25 1006.77 1007.29 1007.81 1008.33 1008.97 1009.61 1009.65 1009.41 1009.17 1009.33 1009.57 1009.81 1010.25 1010.77 1011.25 1011.61 1012.21 1012.49 1012.77 1013.25 1013.53 1013.61 1013.69 1013.77 1014.01 1014.25 1014.45 1014.53 1014.57 1014.57 1014.61 1014.77 1014.89 1014.85 1014.73 1014.73 1014.77 1014.85 1015.01 1015.09
1001.25 1001.29 1001.49 1001.77 1002.25 1002.49 1002.69 1002.97 1003.17 1003.53 1003.89 1004.01 1004.17 1004.25 1004.45 1004.69 1004.93 1005.13 1005.37 1005.49 1005.61 1005.69 1005.85 1006.29 1007.05 1007.57 1008.13 1008.77 1008.85 1008.93 1009.09 1009.29 1009.57 1010.01 1010.73 1010.93 1011.21 1011.33 1011.65 1012.05 1012.29 1012.65 1013.05 1013.37 1013.41 1013.41 1013.57 1013.97 1014.29 1014.33 1014.25 1014.21 1014.21 1014.33 1014.45 1014.45 1014.41 1014.33 1014.41 1014.53 1014.65 1014.81 1014.97
1001.13 1001.25 1001.41 1001.61 1001.85 1002.21 1002.61 1002.81 1003.05 1003.25 1003.33 1003.57 1003.85 1004.09 1004.29 1004.49 1004.61 1004.89 1005.05 1005.05 1005.25 1005.49 1005.97 1006.65 1007.21 1007.73 1008.05 1008.17 1008.45 1008.65 1008.89 1009.17 1009.61 1010.45 1011.57 1012.05 1012.33 1012.49 1012.45 1012.45 1012.57 1012.85 1013.01 1013.13 1013.37 1013.41 1013.45 1013.73 1014.01 1014.05 1014.05 1014.05 1014.05 1014.09 1014.17 1014.21 1014.13 1014.17 1014.29 1014.41 1014.49 1014.57 1014.65
1001.09 1001.21 1001.13 1001.33 1001.69 1001.89 1002.05 1002.33 1002.49 1002.69 1003.09 1003.41 1003.53 1003.77 1003.97 1004.17 1004.61 1004.77 1004.73 1005.01 1005.21 1005.73 1006.33 1006.81 1007.13 1007.41 1007.69 1008.01 1008.25 1008.53 1008.73 1009.21 1009.93 1010.65 1011.49 1012.05 1012.93 1013.09 1012.61 1012.53 1012.69 1012.97 1013.13 1013.09 1013.17 1013.57 1013.89 1013.69 1013.77 1013.89 1013.93 1013.97 1013.97 1014.01 1014.05 1014.09 1014.01 1014.09 1014.17 1014.21 1014.25 1014.37 1014.49
1000.53 1000.61 1000.97 1001.25 1001.37 1001.69 1001.97 1002.25 1002.45 1002.65 1002.77 1002.89 1002.97 1002.97 1003.13 1003.29 1003.49 1003.61 1003.81 1004.37 1004.97 1005.49 1006.09 1006.49 1006.85 1007.05 1007.37 1007.81 1008.05 1008.45 1008.97 1009.65 1010.13 1010.65 1011.57 1011.85 1012.33 1012.93 1012.93 1012.69 1012.57 1012.77 1012.97 1013.21 1013.41 1013.45 1013.53 1013.45 1013.57 1013.61 1013.73 1013.81 1013.81 1013.81 1013.85 1013.93 1013.85 1013.93 1013.97 1014.01 1014.09 1014.17 1014.33
1000.41 1000.69 1000.81 1001.09 1001.45 1001.57 1001.73 1001.85 1002.05 1002.01 1002.17 1002.29 1002.53 1002.85 1003.05 1003.25 1003.13 1003.49 1003.97 1004.33 1004.93 1005.29 1005.81 1006.17 1006.57 1006.97 1007.29 1007.77 1008.25 1008.77 1009.25 1009.73 1010.09 1010.81 1011.29 1010.89 1010.93 1011.69 1012.41 1012.53 1012.37 1012.45 1012.57 1012.85 1013.01 1013.21 1013.25 1013.29 1013.37 1013.33 1013.41 1013.53 1013.57 1013.65 1013.65 1013.57 1013.57 1013.73 1013.81 1013.89 1013.97 1014.01 1014.13
999.97 1000.37 1000.65 1000.73 1000.69 1001.25 1001.25 1001.25 1001.17 1001.37 1001.57 1002.09 1002.41 1002.61 1002.65 1002.85 1003.13 1003.57 1004.01 1004.25 1004.65 1005.21 1005.49 1005.89 1006.41 1006.93 1007.57 1008.09 1008.37 1008.69 1008.93 1009.29 1009.81 1010.57 1010.89 1011.17 1011.25 1011.49 1011.65 1011.65 1011.65 1011.69 1011.69 1012.17 1012.65 1012.77 1012.89 1012.93 1012.93 1013.01 1013.13 1013.21 1013.29 1013.33 1013.37 1013.21 1013.29 1013.45 1013.61 1013.73 1013.77 1013.89 1013.97
999.73 999.73 999.89 1000.41 1000.21 1000.09 1000.33 1000.61 1000.73 1000.97 1001.53 1002.01 1002.13 1002.37 1002.61 1002.85 1003.17 1003.53 1004.01 1004.41 1004.69 1005.13 1005.61 1006.13 1006.73 1007.17 1007.61 1008.01 1008.13 1008.29 1008.53 1008.89 1009.29 1009.77 1010.29 1010.41 1010.49 1010.53 1010.57 1010.85 1011.17 1011.21 1011.61 1012.29 1012.49 1012.57 1012.69 1012.65 1012.69 1012.73 1012.85 1012.89 1012.93 1012.97 1013.01 1012.97 1013.01 1013.21 1013.41 1013.57 1013.61 1013.73 1013.73
999.89 1000.01 999.89 999.81 1000.85 1000.97 1001.33 1001.33 1001.37 1001.65 1001.57 1001.85 1002.25 1002.41 1002.65 1002.85 1003.17 1003.53 1004.01 1004.37 1004.77 1005.25 1005.77 1006.13 1006.57 1006.85 1007.13 1007.37 1007.53 1007.81 1008.25 1008.61 1009.05 1009.45 1009.65 1010.01 1010.21 1010.13 1010.17 1010.33 1010.73 1011.17 1011.49 1011.97 1012.25 1012.37 1012.33 1012.37 1012.45 1012.49 1012.53 1012.61 1012.61 1012.57 1012.73 1012.73 1012.73 1013.01 1013.21 1013.33 1013.37 1013.37 1013.49
999.97 1000.33 1000.65 1000.69 1000.49 1000.81 1001.57 1001.77 1001.65 1001.61 1001.69 1001.77 1002.25 1002.69 1002.77 1003.01 1003.29 1003.61 1004.01 1004.33 1004.69 1005.13 1005.69 1006.09 1006.25 1006.45 1006.65 1006.89 1007.13 1007.53 1007.85 1008.29 1008.89 1009.13 1009.33 1009.61 1009.61 1009.61 1009.85 1010.09 1010.49 1010.97 1011.29 1011.57 1011.81 1011.89 1011.93 1012.05 1012.17 1012.25 1012.33 1012.37 1012.37 1012.37 1012.45 1012.41 1012.53 1012.93 1013.13 1013.21 1013.37 1013.45 1013.41
1000.41 1000.41 1000.49 1000.53 1000.61 1000.73 1000.93 1001.01 1000.77 1001.21 1001.53 1001.97 1002.37 1002.81 1002.89 1003.13 1003.37 1003.65 1003.93 1004.33 1004.69 1005.21 1005.61 1005.69 1005.73 1005.85 1006.05 1006.53 1006.97 1007.33 1007.61 1007.81 1008.05 1008.33 1008.69 1008.89 1009.13 1009.41 1009.41 1009.69 1010.37 1010.69 1010.97 1011.21 1011.45 1011.57 1011.61 1011.65 1011.73 1011.85 1011.97 1012.13 1012.21 1012.13 1012.13 1012.45 1012.65 1012.65 1012.73 1012.93 1013.13 1013.25 1013.25
1000.69 1000.69 1000.93 1001.21 1001.41 1001.37 1001.29 1001.45 1001.41 1001.61 1001.97 1002.33 1002.65 1002.89 1003.05 1003.25 1003.53 1003.81 1004.09 1004.45 1004.93 1005.25 1005.25 1005.29 1005.45 1005.65 1006.01 1006.49 1006.89 1007.17 1007.33 1007.49 1007.57 1007.89 1008.17 1008.41 1008.81 1009.05 1009.49 1009.73 1010.05 1010.37 1010.73 1011.05 1011.25 1011.37 1011.41 1011.41 1011.45 1011.61 1011.81 1011.97 1011.93 1012.01 1012.17 1012.29 1012.45 1012.61 1012.61 1012.73 1012.93 1013.13 1013.13
1000.85 1001.05 1001.25 1001.25 1001.13 1000.81 1000.85 1001.29 1001.77 1002.25 1002.73 1002.97 1003.01 1003.09 1003.25 1003.37 1003.61 1004.05 1004.41 1004.73 1005.09 1005.05 1005.05 1005.21 1005.41 1005.65 1006.05 1006.37 1006.65 1006.89 1007.05 1007.25 1007.41 1007.57 1007.89 1008.29 1008.69 1009.13 1009.37 1009.53 1009.73 1010.05 1010.41 1010.65 1010.89 1011.13 1011.21 1011.33 1011.53 1011.73 1011.89 1011.93 1011.89 1011.89 1012.05 1012.21 1012.21 1012.25 1012.45 1012.69 1012.93 1013.09 1013.13
1001.45 1001.41 1001.45 1001.29 1001.45 1001.81 1001.65 1001.93 1002.49 1002.97 1003.17 1003.21 1003.17 1003.25 1003.37 1003.61 1003.97 1004.29 1004.53 1004.85 1004.93 1004.85 1004.97 1005.17 1005.33 1005.57 1005.85 1006.17 1006.45 1006.65 1006.81 1007.05 1007.29 1007.53 1007.81 1008.21 1008.57 1008.93 1009.29 1009.53 1009.77 1010.01 1010.17 1010.41 1010.73 1010.97 1011.17 1011.33 1011.49 1011.69 1011.81 1011.73 1011.65 1011.65 1011.81 1011.93 1012.01 1012.13 1012.37 1012.77 1012.97 1013.17 1013.17
1002.37 1002.37 1002.37 1002.41 1002.37 1002.33 1002.09 1002.13 1002.61 1002.81 1003.17 1003.25 1003.29 1003.41 1003.61 1003.85 1004.13 1004.29 1004.49 1004.73 1004.77 1004.81 1004.97 1005.13 1005.29 1005.49 1005.85 1006.09 1006.33 1006.57 1006.77 1006.97 1007.21 1007.41 1007.65 1008.05 1008.41 1008.69 1009.13 1009.49 1009.73 1009.97 1010.13 1010.33 1010.65 1010.97 1011.21 1011.41 1011.45 1011.53 1011.61 1011.61 1011.53 1011.65 1011.85 1011.97 1012.13 1012.33 1012.37 1012.57 1012.85 1013.05 1013.13
1002.61 1002.65 1002.73 1002.65 1002.69 1002.61 1002.53 1002.65 1002.73 1003.05 1003.33 1003.53 1003.61 1003.65 1003.73 1003.81 1003.93 1004.17 1004.41 1004.61 1004.69 1004.77 1004.93 1005.09 1005.29 1005.53 1005.85 1006.09 1006.33 1006.53 1006.65 1006.89 1007.13 1007.37 1007.65 1007.93 1008.17 1008.53 1008.97 1009.37 1009.61 1009.97 1010.13 1010.41 1010.61 1010.81 1010.97 1011.17 1011.29 1011.33 1011.33 1011.33 1011.37 1011.61 1011.73 1011.97 1012.21 1012.21 1012.25 1012.49 1012.77 1012.97 1013.09
1001.93 1002.13 1002.49 1002.69 1002.81 1002.97 1003.13 1003.33 1003.41 1003.45 1003.41 1003.81 1003.81 1003.81 1003.81 1003.81 1003.73 1004.01 1004.29 1004.45 1004.57 1004.65 1004.81 1005.01 1005.25 1005.57 1005.81 1006.01 1006.21 1006.41 1006.61 1006.93 1007.17 1007.37 1007.49 1007.53 1007.65 1007.93 1008.29 1008.65 1009.13 1009.69 1010.05 1010.37 1010.45 1010.57 1010.69 1010.89 1011.13 1011.13 1011.13 1011.09 1011.29 1011.61 1011.89 1012.09 1012.17 1012.29 1012.41 1012.57 1012.85 1013.05 1012.89
1002.37 1002.33 1002.13 1002.37 1003.05 1003.57 1003.77 1003.81 1003.65 1003.53 1003.45 1003.69 1003.89 1003.89 1003.93 1003.85 1003.81 1003.89 1004.17 1004.37 1004.49 1004.61 1004.77 1004.97 1005.17 1005.45 1005.73 1005.97 1006.13 1006.29 1006.53 1006.81 1007.09 1007.29 1007.37 1007.45 1007.73 1007.89 1008.05 1008.29 1008.85 1009.45 1009.93 1010.17 1010.25 1010.37 1010.49 1010.61 1010.77 1010.89 1011.05 1011.09 1011.25 1011.53 1011.81 1011.97 1012.21 1012.33 1012.49 1012.65 1012.57 1012.57 1012.69
1002.25 1002.49 1002.77 1003.05 1003.05 1003.29 1003.61 1003.77 1003.73 1003.41 1003.25 1003.53 1003.77 1003.89 1003.93 1003.93 1003.93 1003.97 1004.13 1004.25 1004.37 1004.53 1004.73 1004.97 1005.17 1005.37 1005.61 1005.85 1006.01 1006.21 1006.41 1006.61 1006.77 1007.01 1007.33 1007.61 1007.85 1008.21 1008.57 1008.89 1009.13 1009.41 1009.61 1009.69 1009.77 1009.93 1010.17 1010.33 1010.45 1010.53 1010.65 1010.89 1011.33 1011.49 1011.61 1011.93 1012.09 1012.21 1012.17 1012.25 1012.29 1012.49 1012.73
1002.73 1002.57 1002.93 1003.05 1003.33 1003.61 1003.73 1003.57 1003.33 1003.29 1003.49 1003.65 1003.73 1003.85 1003.93 1004.01 1003.97 1004.01 1004.13 1004.21 1004.33 1004.49 1004.73 1004.93 1005.09 1005.29 1005.49 1005.61 1005.89 1006.13 1006.21 1006.45 1006.61 1006.93 1007.37 1007.93 1008.41 1009.17 1009.69 1009.65 1009.49 1009.41 1009.57 1009.97 1009.93 1009.73 1009.73 1009.93 1010.17 1010.25 1010.37 1010.57 1010.93 1011.09 1011.45 1011.61 1011.77 1011.85 1012.09 1012.17 1012.37 1012.49 1012.61
1002.85 1002.69 1002.77 1003.09 1003.09 1003.01 1003.09 1003.25 1003.41 1003.65 1003.69 1003.77 1003.77 1003.85 1003.93 1004.01 1004.01 1003.97 1003.97 1004.09 1004.21 1004.45 1004.69 1004.85 1005.05 1005.25 1005.33 1005.37 1005.53 1005.81 1006.09 1006.41 1006.61 1006.93 1007.25 1007.65 1008.17 1009.05 1010.21 1010.89 1010.77 1010.21 1009.61 1009.81 1010.29 1010.29 1010.17 1009.97 1009.85 1010.05 1010.33 1010.61 1011.17 1011.29 1011.17 1011.33 1011.53 1011.97 1012.25 1012.45 1012.65 1012.85 1012.93
1003.25 1002.81 1002.61 1002.69 1002.65 1002.85 1003.13 1003.37 1003.49 1003.69 1003.77 1003.77 1003.85 1003.89 1003.89 1003.93 1003.93 1003.93 1003.89 1003.85 1004.05 1004.29 1004.49 1004.61 1004.89 1005.05 1005.09 1005.17 1005.37 1005.61 1005.97 1006.33 1006.65 1006.97 1007.41 1007.85 1008.33 1008.89 1009.49 1010.05 1010.65 1010.93 1011.05 1010.97 1010.81 1010.45 1010.21 1010.17 1010.21 1010.29 1010.33 1010.33 1011.01 1011.81 1011.77 1011.77 1012.01 1012.17 1012.33 1012.53 1012.69 1012.81 1012.81
1003.13 1002.89 1002.85 1003.05 1003.33 1003.57 1003.61 1003.57 1003.65 1003.73 1003.81 1003.85 1003.89 1003.89 1003.93 1003.93 1003.89 1003.89 1003.77 1003.85 1004.01 1004.09 1004.25 1004.41 1004.65 1004.89 1005.17 1005.29 1005.49 1005.73 1006.05 1006.37 1006.69 1007.13 1007.17 1007.81 1008.21 1008.61 1008.89 1008.97 1009.53 1010.53 1011.21 1011.33 1011.01 1010.73 1010.57 1010.41 1010.37 1010.49 1010.69 1010.77 1010.93 1011.41 1012.13 1012.29 1012.25 1012.33 1012.37 1012.45 1012.49 1012.45 1012.49
Wind_Speed
12 13 13 14 15 16 16 16 16 15 15 15 15 15 14 13 13 12 12 13 15 13 13 13 13 11 12 11 11 10 9 9 8 9 8 8 8 9 8 7 8 7 7 7 6 7 6 5 6 7 5 5 5 5 5 5 5 4 4 4 3 4 4
14 14 14 14 15 15 16 16 15 14 14 14 14 15 13 14 13 13 14 14 15 15 14 13 13 12 12 11 9 9 10 9 9 8 8 7 6 7 8 9 8 8 7 7 7 6 5 6 7 6 6 5 6 6 5 5 5 5 5 4 4 4 3
14 14 15 15 15 15 16 14 13 14 15 14 14 13 15 16 16 17 15 14 15 15 13 14 14 13 12 11 10 10 10 9 9 10 10 9 9 9 7 8 7 7 8 7 6 6 6 7 6 6 6 6 6 6 5 5 5 4 4 4 4 4 4
15 16 17 17 17 16 16 17 18 17 16 17 17 18 18 18 16 15 14 15 15 14 14 14 14 14 13 13 12 10 11 11 11 10 9 8 9 7 7 6 6 5 6 6 6 6 5 6 7 6 5 6 6 6 5 5 4 4 4 4 4 4 4
15 15 14 14 15 14 13 14 15 15 16 17 17 17 17 17 15 12 12 13 13 16 17 15 11 11 10 11 10 10 12 12 10 8 8 7 7 7 8 8 7 7 7 6 5 5 5 5 6 6 5 5 5 5 5 5 5 4 4 4 4 4 5
14 15 15 15 14 15 16 17 18 18 18 18 17 17 16 16 14 15 15 14 13 12 10 9 12 13 14 13 11 10 9 9 9 9 8 8 9 8 7 7 7 7 6 7 6 6 6 6 6 6 6 5 5 5 5 5 5 5 5 4 5 4 4
12 14 14 14 15 15 17 16 16 16 16 16 16 14 12 12 15 16 14 14 14 14 14 15 15 13 12 9 10 10 12 11 10 10 8 9 8 8 7 7 7 7 7 5 6 6 6 6 6 6 6 6 6 6 6 6 6 5 4 4 5 4 5
14 15 15 15 16 16 15 14 15 14 13 11 10 11 13 14 14 14 15 16 15 14 14 15 14 13 12 11 12 14 13 12 9 9 8 9 8 7 7 6 7 7 5 7 7 6 6 6 5 6 6 6 6 6 6 6 6 5 4 5 5 5 4
11 14 15 16 16 15 14 14 14 15 16 16 17 17 17 15 15 16 17 17 15 15 17 16 15 12 10 11 12 13 11 10 10 10 11 11 9 8 6 6 6 6 7 7 6 5 5 6 6 6 6 6 6 6 6 7 7 5 5 6 6 7 6
11 10 11 12 12 11 11 10 10 10 12 12 12 12 14 14 14 14 14 15 14 16 16 14 12 12 12 11 12 12 11 11 10 10 10 10 9 11 10 8 7 7 7 7 5 6 5 5 6 5 6 6 7 7 7 7 7 6 6 7 7 7 7
10 11 10 10 10 10 8 10 13 14 14 15 15 14 14 14 14 14 13 13 14 15 15 13 10 11 11 12 12 11 11 12 13 13 12 11 9 9 7 8 8 7 7 6 5 5 5 5 5 5 5 6 7 7 7 8 7 7 7 6 6 7 7
10 10 12 11 8 8 13 14 12 11 12 12 13 14 14 13 13 13 13 14 14 13 11 12 10 11 11 11 12 12 13 13 11 9 5 3 4 5 8 9 8 7 6 6 7 5 6 7 6 6 7 7 8 8 8 7 7 7 7 7 6 6 6
10 10 10 11 12 10 6 7 12 13 13 13 13 12 12 13 13 13 13 13 12 11 10 10 10 10 11 12 14 13 12 8 10 12 9 7 7 6 6 8 8 7 7 7 7 8 8 7 6 6 7 8 8 8 8 8 7 7 7 6 6 6 6
6 5 5 4 5 8 12 12 11 11 12 11 11 11 10 11 11 11 12 12 10 9 10 9 11 12 12 13 13 11 10 13 12 14 16 16 13 12 12 10 8 8 7 7 8 9 9 8 8 7 6 8 8 8 7 7 7 7 6 6 6 6 6
10 11 8 9 9 9 9 10 10 11 11 11 10 10 11 10 9 8 8 8 10 11 13 12 12 12 12 12 11 10 15 18 18 16 13 14 13 13 12 10 10 9 8 8 8 7 8 7 7 6 7 8 8 7 6 6 7 6 6 7 7 6 6
13 12 12 11 11 10 10 10 10 10 9 7 10 11 10 9 10 10 11 11 11 12 11 11 13 14 13 12 11 14 16 16 13 13 15 15 14 13 12 10 9 9 9 8 8 8 6 5 5 6 9 9 7 6 5 6 5 7 11 8 6 6 5
12 12 11 9 8 9 9 8 7 6 7 8 9 10 10 9 8 8 9 10 12 13 12 13 12 13 12 12 13 14 14 13 11 11 9 6 8 10 10 10 8 8 8 7 8 8 5 4 6 7 7 8 7 7 6 6 5 9 10 10 9 5 4
11 9 8 9 9 8 8 8 8 9 10 9 8 7 8 8 8 9 11 11 12 10 8 9 10 11 12 13 13 14 15 13 12 11 8 6 5 6 6 7 6 6 7 8 7 7 4 6 7 7 7 6 6 6 6 6 8 10 8 8 9 8 6
7 7 9 8 9 10 10 10 9 8 6 5 7 7 6 6 7 9 10 10 8 7 9 10 11 12 13 13 13 14 14 11 10 11 9 5 3 7 5 7 7 6 7 8 7 3 4 7 7 7 7 7 7 7 6 6 8 10 11 10 10 10 8
9 8 6 6 7 7 5 5 5 5 7 8 9 11 11 11 13 13 11 9 8 11 11 12 12 13 13 13 13 12 10 9 10 12 10 4 2 6 5 6 8 8 5 3 6 7 8 8 8 8 8 8 8 7 7 7 9 11 11 9 9 9 7
8 8 9 8 6 6 7 8 7 7 8 8 8 6 8 9 9 7 7 9 10 10 12 12 12 12 12 12 10 9 9 11 11 10 10 11 11 9 6 6 8 7 7 10 9 7 8 8 8 8 9 9 8 7 8 7 9 9 9 9 10 10 7
9 9 9 9 10 8 9 9 10 10 9 6 7 7 9 9 7 8 8 8 10 10 11 12 12 11 9 10 10 10 11 12 12 11 11 10 8 8 10 12 11 11 10 7 5 6 7 7 8 9 9 9 8 8 8 8 8 9 9 10 10 7 4
8 9 7 7 9 11 9 8 9 8 6 7 7 8 7 6 7 7 8 9 9 10 9 9 9 9 10 10 11 12 13 14 15 14 12 13 14 14 13 12 12 10 5 6 7 7 8 9 8 8 9 9 9 9 8 8 8 9 9 9 9 6 4
3 3 4 7 3 5 5 5 4 4 7 8 6 4 5 6 8 8 8 8 8 9 9 10 10 10 12 12 12 13 14 14 14 14 14 14 14 14 13 11 8 6 6 7 7 7 8 8 8 8 8 9 9 9 8 8 7 9 9 10 10 7 5
6 6 4 4 5 9 7 6 7 8 7 8 7 4 5 7 8 8 8 8 9 9 10 10 10 12 13 13 13 13 14 14 14 14 14 14 14 13 12 11 8 6 6 6 7 8 7 7 7 7 7 8 7 7 8 8 5 7 7 8 7 6 4
7 7 8 7 7 6 7 6 8 7 7 6 6 6 7 7 7 7 8 8 7 8 9 10 12 12 12 12 13 13 14 14 16 16 15 15 13 12 13 8 5 7 7 8 8 7 7 7 8 9 8 7 7 7 7 5 3 5 8 7 7 7 5
9 9 9 8 7 6 8 8 7 5 4 4 6 6 6 6 6 7 5 6 6 7 8 9 10 12 11 11 12 13 14 13 14 15 14 13 12 11 8 7 7 7 7 7 6 7 7 8 7 7 6 6 6 5 4 4 4 3 7 5 6 7 7
11 11 8 8 7 8 8 6 6 6 5 4 4 5 5 6 6 3 4 5 6 6 7 9 10 10 11 12 13 14 13 13 12 12 12 11 9 8 8 7 6 6 6 6 6 8 8 7 6 5 5 4 4 4 3 3 5 4 5 6 7 8 8
10 9 8 8 9 7 7 7 5 4 3 3 4 4 4 5 5 4 4 6 6 6 8 9 10 11 11 12 12 12 12 11 12 10 8 8 9 8 8 6 6 6 6 7 7 8 8 7 6 6 5 5 3 3 3 3 2 3 4 7 7 8 6
9 8 7 6 5 4 6 6 4 3 3 3 2 3 3 4 5 5 6 6 5 7 8 9 10 10 11 11 11 11 10 10 10 9 8 9 8 8 7 6 5 5 6 6 7 7 7 5 6 6 6 6 5 3 2 1 1 2 4 6 7 7 7
7 8 7 7 7 5 5 3 4 3 2 2 3 3 4 4 6 6 7 6 6 8 9 9 9 10 10 10 10 10 9 9 9 9 8 8 8 8 7 6 6 7 6 6 6 7 7 6 6 7 7 6 5 3 1 1 2 2 5 7 6 6 6
6 5 6 4 5 5 3 3 2 4 4 3 3 4 4 4 6 7 6 6 6 7 8 9 9 9 9 9 9 10 9 10 9 9 9 10 9 9 8 9 9 9 7 6 6 6 7 7 6 6 5 5 4 3 3 3 3 3 3 4 5 5 6
2 2 5 4 0 0 1 2 3 4 4 3 2 3 3 4 3 5 6 7 7 7 8 8 9 8 8 9 9 9 9 10 9 9 9 9 7 7 7 7 8 8 6 6 7 6 6 6 6 5 5 4 3 3 3 3 3 3 3 2 2 2 2
1 0 2 1 1 0 1 3 5 4 1 1 2 3 3 3 4 5 7 6 6 6 7 7 8 8 8 9 8 8 8 8 10 10 7 6 5 5 4 4 5 7 8 8 8 8 6 5 5 6 5 4 4 4 4 3 3 3 3 2 2 1 1
1 1 3 3 2 4 6 3 2 1 1 0 3 4 4 5 4 5 7 7 6 7 8 8 9 8 9 8 8 8 7 6 6 6 6 6 7 7 5 2 1 3 4 4 2 1 4 5 4 3 3 4 5 5 4 3 4 4 2 3 3 3 2
1 0 1 2 2 1 2 2 2 2 1 2 3 4 5 6 6 5 5 6 7 8 8 8 7 8 9 9 9 8 7 6 5 6 7 7 6 7 7 10 8 6 3 2 5 4 3 1 3 4 4 5 3 1 3 4 3 7 8 5 4 4 6
5 5 5 6 6 5 4 4 2 1 2 3 4 5 6 6 6 6 6 6 6 8 8 8 7 7 7 7 7 7 6 7 6 5 6 6 7 6 7 5 8 13 12 8 7 6 7 7 8 9 6 7 5 4 9 9 9 8 6 5 6 7 8
5 5 5 5 4 3 5 6 5 3 3 3 4 5 5 5 5 7 7 5 5 6 7 7 7 7 6 5 6 7 6 5 6 6 6 6 7 8 7 6 6 6 11 10 9 10 10 10 10 10 10 10 11 8 3 4 5 5 5 6 8 6 3
Wind_Direction
198 196 196 194 196 198 197 196 190 188 188 190 192 193 193 193 195 190 193 193 198 199 195 192 193 191 195 197 193 190 185 177 176 179 183 185 181 171 173 181 176 183 178 177 189 182 195 176 176 185 186 193 200 208 214 214 212 211 204 195 190 199 214
194 196 198 197 199 200 201 196 191 189 189 191 192 193 193 195 194 195 198 196 198 199 193 193 192 195 195 196 191 185 181 181 181 182 180 179 179 177 176 176 178 181 180 186 177 192 173 184 177 184 193 198 204 205 208 208 207 209 204 199 196 214 206
193 192 196 197 199 201 199 193 193 192 190 191 192 191 196 198 196 198 196 196 198 199 194 193 196 194 193 192 187 188 183 180 183 182 181 183 180 177 182 174 179 174 185 181 178 180 185 178 190 190 193 197 203 203 208 213 214 208 208 196 203 216 218
192 193 197 197 199 198 195 193 192 193 193 191 192 194 198 200 199 200 197 197 197 196 197 199 194 193 191 190 188 182 186 189 187 185 183 176 174 172 167 177 173 167 166 186 187 179 181 183 190 198 198 198 204 204 205 214 220 216 220 204 220 225 232
197 193 192 194 197 193 194 196 198 194 194 196 197 197 198 200 197 197 200 202 198 199 203 199 195 194 193 189 186 186 189 187 184 179 172 169 163 163 170 172 170 173 183 180 179 179 175 185 195 197 204 204 211 205 212 216 223 216 215 204 222 223 231
192 189 194 194 193 194 195 197 195 192 193 194 196 197 200 196 192 198 200 198 201 204 196 188 195 196 197 193 186 186 182 183 175 169 165 165 162 169 173 169 168 177 177 187 176 185 186 187 197 197 204 208 211 214 216 220 225 213 212 200 218 220 225
185 189 194 193 193 195 197 198 194 196 197 199 198 199 194 191 196 202 196 200 200 195 195 198 201 196 198 179 185 179 182 180 173 168 159 158 165 166 169 165 172 180 186 166 186 182 186 197 202 205 209 210 214 214 220 224 232 217 200 203 223 222 226
184 189 194 192 195 196 197 194 193 195 195 196 190 191 191 197 198 197 198 202 199 198 199 202 200 197 189 182 183 184 184 178 168 158 159 158 162 163 164 168 179 183 172 185 198 180 193 199 204 210 210 210 222 223 224 228 235 228 201 211 220 234 207
191 192 189 193 196 196 193 189 187 188 189 189 191 194 195 195 197 199 201 201 199 198 204 202 200 191 181 182 183 185 181 163 159 161 162 164 162 159 164 178 190 182 183 195 195 189 196 200 203 211 211 218 224 226 228 230 235 230 211 219 219 227 228
189 191 202 202 197 192 185 178 177 180 189 193 198 198 199 199 202 203 204 202 199 203 206 201 193 184 180 182 185 180 170 165 162 165 168 163 159 166 171 182 193 191 191 196 189 190 204 203 209 213 211 219 229 228 233 234 235 230 216 219 219 223 231
193 198 196 193 191 183 163 165 177 187 190 194 197 199 199 200 201 201 203 201 202 207 204 198 186 178 179 179 179 180 172 166 170 173 170 169 164 159 162 179 196 192 191 186 192 196 193 210 203 211 214 218 226 230 229 233 231 230 228 223 217 221 227
199 194 196 190 175 161 180 184 183 186 193 196 198 199 200 200 200 201 202 204 205 203 195 192 179 180 174 172 176 182 178 177 170 150 121 89 96 149 190 192 197 189 182 182 191 189 199 209 205 202 214 221 228 227 230 233 230 228 231 227 221 221 228
201 196 187 183 183 183 157 166 187 192 194 197 198 199 199 199 200 201 201 204 202 198 190 182 175 174 172 176 185 185 174 143 87 83 104 138 160 173 214 210 197 184 184 183 188 194 206 209 203 216 212 223 222 222 226 229 228 228 228 227 218 214 218
168 184 189 163 158 169 184 188 187 190 194 194 199 199 203 204 203 202 200 202 195 185 179 175 175 177 178 180 186 172 111 99 135 162 170 174 179 186 190 199 191 186 187 181 192 205 207 211 211 218 211 226 224 224 217 219 223 222 217 214 212 206 212
186 199 187 181 189 182 182 187 190 193 192 198 191 194 200 199 198 197 199 193 187 183 188 178 175 175 176 179 172 133 144 164 175 175 167 172 178 186 190 192 185 183 186 191 201 201 212 210 211 210 222 229 219 210 200 203 212 208 197 201 206 205 215
192 196 192 189 188 187 188 193 193 196 190 182 189 196 195 195 193 193 192 192 188 190 187 168 179 175 176 170 151 157 171 177 178 171 171 179 179 187 186 189 183 181 188 197 202 216 214 220 209 209 220 223 212 202 198 211 214 214 209 209 213 209 214
198 196 192 191 182 184 189 191 192 177 178 190 193 197 196 193 190 187 191 193 193 194 185 177 175 176 167 158 166 166 174 178 179 164 171 167 174 189 190 186 184 181 184 190 207 218 192 184 218 223 223 219 209 206 211 222 226 227 229 232 232 229 220
198 193 190 189 183 178 182 186 181 183 194 194 190 186 188 188 184 182 198 196 198 192 163 165 166 165 168 172 168 170 176 179 168 143 143 164 200 215 200 193 180 178 189 202 219 225 192 197 217 228 227 222 215 213 216 224 231 232 238 236 232 224 225
186 191 200 187 180 187 188 185 187 190 183 167 183 184 185 166 167 196 199 196 187 133 155 167 168 174 176 173 173 175 181 169 149 136 159 159 184 234 196 186 180 188 210 216 222 206 218 221 218 226 227 223 217 219 223 231 229 225 225 228 232 230 223
196 195 190 188 188 178 164 157 160 172 175 179 185 189 184 182 190 200 192 176 153 161 164 169 178 179 178 175 177 174 163 147 147 141 144 112 136 258 229 190 192 197 202 220 226 205 217 222 218 221 223 222 217 220 226 230 233 225 226 230 236 239 225
184 180 182 176 165 162 165 165 165 180 192 198 189 179 175 193 199 177 163 163 163 167 168 178 177 180 178 175 167 157 144 140 141 135 177 182 188 201 205 204 203 188 190 216 220 206 214 216 217 221 220 221 216 218 228 234 231 222 220 229 235 241 224
183 168 173 181 168 170 167 181 183 184 195 182 165 176 184 191 174 167 172 160 168 170 175 176 178 175 161 161 160 159 156 150 143 160 189 183 181 184 201 209 206 204 209 210 204 215 218 223 219 222 220 217 212 214 230 236 224 215 218 221 229 219 200
160 172 165 174 170 178 186 178 175 181 148 157 168 166 182 162 157 160 155 168 173 169 169 166 166 161 160 157 159 160 160 158 162 175 186 190 193 199 204 202 207 206 169 191 206 206 212 219 216 215 216 215 211 211 225 236 226 212 217 217 207 184 194
117 131 150 151 141 110 115 116 107 128 141 138 138 142 138 147 158 158 165 172 162 162 163 167 169 163 165 168 167 162 158 160 167 181 192 194 201 201 206 208 206 183 167 193 201 213 216 216 219 217 216 215 211 207 209 229 231 202 203 204 193 194 190
78 84 94 103 112 108 117 134 137 128 112 111 120 143 144 151 154 160 175 175 170 166 164 169 167 167 170 172 169 160 159 162 175 189 194 197 203 205 209 210 194 160 162 193 207 221 218 216 219 222 218 219 213 190 198 223 218 171 199 196 195 199 206
81 73 61 70 72 100 108 114 97 84 99 123 148 152 156 153 161 172 179 177 160 165 167 173 173 173 171 165 163 164 167 175 185 190 191 197 199 203 208 193 153 166 183 202 206 218 217 213 212 216 213 199 196 201 206 209 204 182 188 190 189 205 204
78 76 72 68 65 61 65 44 53 81 115 128 140 146 150 155 157 184 177 155 156 170 170 163 164 170 167 163 164 172 180 186 191 191 195 196 198 202 194 178 182 179 190 201 203 217 223 216 215 214 210 196 204 191 168 195 181 194 181 189 190 200 200
73 68 70 74 76 82 83 65 61 63 53 57 115 125 145 155 172 157 135 135 155 162 146 155 164 166 164 169 174 180 185 188 194 197 194 189 186 180 191 189 186 189 190 197 203 215 220 213 204 197 185 187 185 167 160 193 191 183 189 193 194 197 203
53 63 54 53 51 40 73 78 72 73 87 88 115 124 138 143 144 128 127 149 163 153 151 158 164 170 171 172 176 184 184 184 189 194 190 187 186 183 184 172 183 199 196 199 208 213 213 201 184 175 185 197 215 185 167 164 174 181 204 167 176 168 169
40 36 37 41 71 97 100 95 85 72 53 75 91 108 108 138 136 142 148 161 157 148 153 161 171 169 172 176 178 179 181 182 185 189 186 181 170 177 171 173 197 212 210 203 201 202 200 189 179 177 186 198 217 196 143 131 146 202 196 147 148 146 155
64 55 35 29 18 24 57 101 130 116 105 107 109 118 129 137 146 147 160 167 152 154 160 166 170 172 174 176 176 180 182 175 175 178 169 160 159 171 168 181 198 224 219 195 195 191 188 182 179 185 192 196 193 165 95 149 172 165 136 131 138 138 147
42 54 61 50 31 21 45 73 114 152 183 156 136 128 131 143 159 159 162 158 160 157 161 165 171 177 175 174 177 178 174 174 172 168 164 168 176 179 179 187 196 217 205 188 186 179 180 177 178 184 186 206 186 150 149 151 150 137 134 135 147 149 151
20 67 84 67 62 137 128 156 191 210 210 145 117 122 120 133 138 139 140 158 163 160 164 169 173 175 168 174 175 174 175 172 172 174 178 177 174 184 194 196 197 196 181 183 178 177 177 171 179 175 174 183 173 157 155 157 149 147 130 145 144 108 113
190 36 52 331 341 95 244 223 227 223 237 77 110 115 125 136 151 155 160 160 168 162 164 169 175 173 172 170 172 173 177 175 176 171 170 166 157 162 154 155 170 181 186 184 179 173 180 175 180 178 178 177 172 162 159 167 169 176 179 148 125 109 77
282 107 125 147 199 189 199 215 265 319 28 64 126 154 164 181 182 176 172 176 174 170 175 180 180 172 168 168 165 182 183 174 172 155 138 104 80 65 48 29 333 136 90 41 30 356 166 174 178 179 171 164 160 158 179 196 202 200 139 122 129 146 163
305 350 96 163 160 62 5 331 315 333 249 185 170 178 195 196 196 193 186 181 185 178 186 186 179 173 177 175 176 176 176 169 151 139 142 135 124 113 87 64 57 38 81 110 32 41 24 88 172 173 152 111 73 43 183 203 188 111 116 123 156 196 216
343 4 17 14 8 355 337 308 291 248 212 201 185 200 207 207 200 196 205 208 187 187 190 183 183 187 186 177 176 163 157 156 149 140 110 116 126 125 130 122 61 51 48 55 61 55 63 89 106 110 110 122 124 73 59 87 101 117 131 155 192 203 207
18 26 22 31 32 342 319 306 299 276 240 205 206 217 221 220 216 210 218 202 184 188 188 185 189 180 181 170 132 131 132 138 149 141 135 131 138 145 145 130 118 72 46 42 39 51 63 74 85 90 95 107 120 126 73 68 93 129 171 195 195 200 165